Regional Weather Roundup
Issued by NWS

Home | Current Version | Previous Version | Graphics & Text | Print | Product List | Glossary Off
Versions: 1 2 3 4 5 6 7 8 9 10 11 12 13 14 15 16 17 18 19 20 21 22 23 24 25 26 27 28 29 30 31 32 33 34 35 36 37 38 39 40 41 42 43 44 45 46 47 48 49 50

000
ASUS45 KBOU 190807
RWRCO

WEATHER ROUNDUP FOR COLORADO
NATIONAL WEATHER SERVICE DENVER/BOULDER CO
200 AM MDT SUN APR 19 2015

NOTE: "FAIR" INDICATES FEW OR NO CLOUDS BELOW 12000 FEET WITH NO
SIGNIFICANT WEATHER AND/OR OBSTRUCTIONS TO VISIBILITY.

COZ001>005-013-030-031-190900-
...NORTHWEST COLORADO...

CITY           SKY/WX    TMP DP  RH WIND       PRES   REMARKS
CRAIG          CLOUDY    37  32  82 W6        30.11R
HAYDEN         MOCLDY    34  28  80 CALM      30.10R
MEEKER         CLOUDY    34  31  88 CALM      30.12R
MOUNT WERNER   NOT AVBL
STEAMBOAT SPGS CLOUDY    32  32  99 CALM      30.10S
WALDEN         CLOUDY    30  30 100 N14       30.11R WCI  20
$$

COZ006>008-011-190900-
...WEST CENTRAL VALLEYS...

CITY           SKY/WX    TMP DP  RH WIND       PRES   REMARKS
GRAND JUNCTION MOCLDY    35  35 100 NE7       30.10R WCI  29
MONTROSE       CLOUDY    35  35 100 CALM      30.11S
EAGLE          CLOUDY    36  34  93 N3        30.12S
RIFLE          CLOUDY    33  32  96 S6        30.11S FOG     WCI  28
DELTA          CLOUDY    38  38  98 CALM      30.11S
NUCLA          CLEAR     36  34  93 SE8       30.11S
$$

COZ017>023-064>068-190900-
...SOUTHWEST COLORADO...

CITY           SKY/WX    TMP DP  RH WIND       PRES   REMARKS
DURANGO        CLEAR     39  26  59 E6        29.99S
CORTEZ         CLEAR     39  34  82 N3        30.05R
PAGOSA SPRINGS CLOUDY    36  23  59 NE5       30.02S
TELLURIDE      MOCLDY    31  29  92 W10G18    30.10F WCI  22
WOLF CREEK PAS CLOUDY    21  18  86 NE16G25   30.12S WCI   7
$$

COZ009-010-012-014-032>034-037-058>063-190900-
...CENTRAL COLORADO...

CITY           SKY/WX    TMP DP  RH WIND       PRES   REMARKS
ASPEN          FLURRIES  31  30  96 CALM      30.09S
BUENA VISTA    PTCLDY    30  21  68 N8        30.05S WCI  22
COPPER MTN     CLOUDY    23  18  80 W17       30.10S WCI   9
BERTHOUD PASS  CLOUDY    14   5  67 MISG      30.11R
COTTONWOOD PAS PTCLDY    32  18  55 NW5       30.07R WCI  27
GUNNISON       MOCLDY    30  23  74 N3        30.10R
KREMMLING      FLURRIES  34  32  93 CALM      30.10R
LEADVILLE      PTCLDY    23  19  85 N15       30.08R WCI  10
SALIDA         PTCLDY    32  24  73 W5        30.13R WCI  27
SUNLIGHT       HVY SNOW N/A N/A N/A NW5       30.17R VSB<1/4
WILKERSON PASS CLOUDY    19  18  93 NE13G22   30.09R WCI   7
$$

COZ069>075-190900-
...SAN LUIS VALLEY/SANGRE DE CRISTO MOUNTAINS...

CITY           SKY/WX    TMP DP  RH WIND       PRES   REMARKS
ALAMOSA        CLOUDY    36  25  64 N14       30.02R
LA VETA PASS   PTCLDY    23  19  86 MISG      30.03R
SAGUACHE       PTCLDY    32  27  80 NW6       30.05R WCI  26
$$

COZ035-036-038>040-190900-
...NORTHERN COLORADO FRONT RANGE...

CITY           SKY/WX    TMP DP  RH WIND       PRES   REMARKS
DENVER INTL AP CLOUDY    41  35  79 N29G40    30.02R
DMNS CITY PARK   N/A     40  36  85 N18G28    30.05R
AURORA         LGT RAIN  40  36  85 N26G37    30.03R
FRONT RANGE AP CLOUDY    43  37  81 NW26G36   30.02R
ERIE MUNI ARPT LGT RAIN  42  37  80 N16G29    30.05R
BOULDER MUN AP LGT RAIN  41  36  81 NW6       30.06R
CENTENNIAL     LGT RAIN  39  36  89 N25       30.03R
BROOMFIELD     LGT RAIN  41  36  81 N18G26    30.05R
FORT COLLINS   CLOUDY    43  32  65 N23G33    30.07R
LONGMONT       LGT RAIN  46  37  73 N10G17    30.07R
$$

COZ041-046-047-076>085-087-088-190900-
...PIKES PEAK/PALMER DIVIDE AND SOUTHERN FOOTHILLS...

CITY           SKY/WX    TMP DP  RH WIND       PRES   REMARKS
COLO. SPRINGS  LGT RAIN  40  32  73 NW24G35   29.98S
A. F. ACADEMY  CLOUDY    37  32  81 NW25G36   29.98R
ELLICOTT       CLOUDY   N/A N/A N/A N25G32    29.95R
FALCON         CLOUDY    36  33  90 N25G35    29.98R
FORT CARSON    MOCLDY    41  32  70 N31G39    29.95S SQUALL
LIMON          MIX PCPN  37  35  92 N25G39    29.93S
MONUMENT HILL  CLOUDY    32  32 100 N26G35    30.00R WCI  18
TRINIDAD       PTCLDY    36  32  85 W10       29.98R
$$

COZ042>045-048>051-090-091-190900-
...NORTHEAST COLORADO...

CITY           SKY/WX    TMP DP  RH WIND       PRES   REMARKS
GREELEY ARPT   CLOUDY    43  32  65 N23G32    30.03S
AKRON          LGT RAIN  41  40  96 N24G31    29.93R
BURLINGTON     CLOUDY    44  40  85 N22G33    29.82S
WRAY           CLOUDY    48  43  84 N22G29    29.88S
STERLING       CLOUDY    45  41  87 N18       29.95R
HOLYOKE        RAIN      46  45  93 N9        29.91S
FORT MORGAN    CLOUDY    44  37  77 N25G33    29.97S
$$

COZ086-089-092>099-190900-
...SOUTHEAST COLORADO...

CITY           SKY/WX    TMP DP  RH WIND       PRES   REMARKS
PUEBLO         CLOUDY    47  34  60 NW18      29.96R
LA JUNTA       CLOUDY    46  41  82 NW18      29.90F
LAMAR          CLOUDY    45  41  86 N20G26    29.84S
SPRINGFIELD      N/A     41  39  93 NW17      29.86S
$$


USA.gov is the U.S. government's official web portal to all federal, state and local government web resources and services.